Year,Month,Day,Hour,Minute,Value (Times are PST for temperature in C)
2013,10,23,00,00,6.20
2013,10,23,00,01,6.10
2013,10,23,00,02,6.10
2013,10,23,00,03,6.10
2013,10,23,00,04,6.10
2013,10,23,00,05,6.00
2013,10,23,00,06,6.10
2013,10,23,00,07,6.10
2013,10,23,00,08,6.10
2013,10,23,00,09,6.10
2013,10,23,00,10,6.10
2013,10,23,00,11,6.10
2013,10,23,00,12,6.10
2013,10,23,00,13,6.10
2013,10,23,00,14,6.10
2013,10,23,00,15,6.10
2013,10,23,00,16,6.10
2013,10,23,00,17,6.00
2013,10,23,00,18,6.00
2013,10,23,00,19,6.00
2013,10,23,00,20,6.00
2013,10,23,00,21,5.90
2013,10,23,00,22,5.90
2013,10,23,00,23,5.80
2013,10,23,00,24,5.80
2013,10,23,00,25,5.70
2013,10,23,00,26,5.70
2013,10,23,00,27,5.70
2013,10,23,00,28,5.60
2013,10,23,00,29,5.60
2013,10,23,00,30,5.60
2013,10,23,00,31,5.50
2013,10,23,00,32,5.50
2013,10,23,00,33,5.50
2013,10,23,00,34,5.50
2013,10,23,00,35,5.50
2013,10,23,00,36,5.40
2013,10,23,00,37,5.40
2013,10,23,00,38,5.50
2013,10,23,00,39,5.50
2013,10,23,00,40,5.50
2013,10,23,00,41,5.50
2013,10,23,00,42,5.50
2013,10,23,00,43,5.50
2013,10,23,00,44,5.40
2013,10,23,00,45,5.40
2013,10,23,00,46,5.40
2013,10,23,00,47,5.40
2013,10,23,00,48,5.40
2013,10,23,00,49,5.40
2013,10,23,00,50,5.40
2013,10,23,00,51,5.40
2013,10,23,00,52,5.40
2013,10,23,00,53,5.40
2013,10,23,00,54,5.40
2013,10,23,00,55,5.40
2013,10,23,00,56,5.40
2013,10,23,00,57,5.40
2013,10,23,00,58,5.50
2013,10,23,00,59,5.50
2013,10,23,01,00,5.50
2013,10,23,01,01,5.50
2013,10,23,01,02,5.60
2013,10,23,01,03,5.60
2013,10,23,01,04,5.50
2013,10,23,01,05,5.50
2013,10,23,01,06,5.50
2013,10,23,01,07,5.50
2013,10,23,01,08,5.40
2013,10,23,01,09,5.40
2013,10,23,01,10,5.40
2013,10,23,01,11,5.40
2013,10,23,01,12,5.40
2013,10,23,01,13,5.40
2013,10,23,01,14,5.40
2013,10,23,01,15,5.40
2013,10,23,01,16,5.50
2013,10,23,01,17,5.40
2013,10,23,01,18,5.40
2013,10,23,01,19,5.40
2013,10,23,01,20,5.40
2013,10,23,01,21,5.40
2013,10,23,01,22,5.40
2013,10,23,01,23,5.40
2013,10,23,01,24,5.40
2013,10,23,01,25,5.40
2013,10,23,01,26,5.40
2013,10,23,01,27,5.30
2013,10,23,01,28,5.30
2013,10,23,01,29,5.30
2013,10,23,01,30,5.20
2013,10,23,01,31,5.20
2013,10,23,01,32,5.20
2013,10,23,01,33,5.20
2013,10,23,01,34,5.20
2013,10,23,01,35,5.20
2013,10,23,01,36,5.10
2013,10,23,01,37,5.10
2013,10,23,01,38,5.10
2013,10,23,01,39,5.20
2013,10,23,01,40,5.20
2013,10,23,01,41,5.30
2013,10,23,01,42,5.30
2013,10,23,01,43,5.30
2013,10,23,01,44,5.30
2013,10,23,01,45,5.30
2013,10,23,01,46,5.30
2013,10,23,01,47,5.30
2013,10,23,01,48,5.30
2013,10,23,01,49,5.30
2013,10,23,01,50,5.30
2013,10,23,01,51,5.30
2013,10,23,01,52,5.30
2013,10,23,01,53,5.30
2013,10,23,01,54,5.20
2013,10,23,01,55,5.20
2013,10,23,01,56,5.20
2013,10,23,01,57,5.20
2013,10,23,01,58,5.20
2013,10,23,01,59,5.10
2013,10,23,02,00,5.10
2013,10,23,02,01,5.10
2013,10,23,02,02,5.00
2013,10,23,02,03,5.00
2013,10,23,02,04,5.00
2013,10,23,02,05,5.00
2013,10,23,02,06,5.00
2013,10,23,02,07,5.10
2013,10,23,02,08,5.10
2013,10,23,02,09,5.10
2013,10,23,02,10,5.10
2013,10,23,02,11,5.10
2013,10,23,02,12,5.00
2013,10,23,02,13,5.00
2013,10,23,02,14,5.00
2013,10,23,02,15,5.00
2013,10,23,02,16,5.00
2013,10,23,02,17,5.10
2013,10,23,02,18,5.10
2013,10,23,02,19,5.10
2013,10,23,02,20,5.20
2013,10,23,02,21,5.30
2013,10,23,02,22,5.30
2013,10,23,02,23,5.40
2013,10,23,02,24,5.50
2013,10,23,02,25,5.60
2013,10,23,02,26,5.60
2013,10,23,02,27,5.70
2013,10,23,02,28,5.70
2013,10,23,02,29,5.70
2013,10,23,02,30,5.80
2013,10,23,02,31,5.80
2013,10,23,02,32,5.80
2013,10,23,02,33,5.80
2013,10,23,02,34,5.70
2013,10,23,02,35,5.70
2013,10,23,02,36,5.70
2013,10,23,02,37,5.70
2013,10,23,02,38,5.60
2013,10,23,02,39,5.50
2013,10,23,02,40,5.50
2013,10,23,02,41,5.40
2013,10,23,02,42,5.30
2013,10,23,02,43,5.30
2013,10,23,02,44,5.20
2013,10,23,02,45,5.20
2013,10,23,02,46,5.20
2013,10,23,02,47,5.20
2013,10,23,02,48,5.10
2013,10,23,02,49,5.10
2013,10,23,02,50,5.10
2013,10,23,02,51,5.10
2013,10,23,02,52,5.10
2013,10,23,02,53,5.10
2013,10,23,02,54,5.10
2013,10,23,02,55,5.10
2013,10,23,02,56,5.10
2013,10,23,02,57,5.10
2013,10,23,02,58,5.10
2013,10,23,02,59,5.10
2013,10,23,03,00,5.00
2013,10,23,03,01,5.00
2013,10,23,03,02,4.90
2013,10,23,03,03,4.90
2013,10,23,03,04,4.90
2013,10,23,03,05,4.80
2013,10,23,03,06,4.80
2013,10,23,03,07,4.80
2013,10,23,03,08,4.80
2013,10,23,03,09,4.80
2013,10,23,03,10,4.80
2013,10,23,03,11,4.70
2013,10,23,03,12,4.70
2013,10,23,03,13,4.70
2013,10,23,03,14,4.70
2013,10,23,03,15,4.70
2013,10,23,03,16,4.60
2013,10,23,03,17,4.60
2013,10,23,03,18,4.60
2013,10,23,03,19,4.60
2013,10,23,03,20,4.50
2013,10,23,03,21,4.50
2013,10,23,03,22,4.50
2013,10,23,03,23,4.50
2013,10,23,03,24,4.50
2013,10,23,03,25,4.50
2013,10,23,03,26,4.60
2013,10,23,03,27,4.60
2013,10,23,03,28,4.60
2013,10,23,03,29,4.70
2013,10,23,03,30,4.70
2013,10,23,03,31,4.60
2013,10,23,03,32,4.60
2013,10,23,03,33,4.60
2013,10,23,03,34,4.60
2013,10,23,03,35,4.50
2013,10,23,03,36,4.50
2013,10,23,03,37,4.40
2013,10,23,03,38,4.50
2013,10,23,03,39,4.50
2013,10,23,03,40,4.60
2013,10,23,03,41,4.60
2013,10,23,03,42,4.50
2013,10,23,03,43,4.50
2013,10,23,03,44,4.50
2013,10,23,03,45,4.50
2013,10,23,03,46,4.40
2013,10,23,03,47,4.40
2013,10,23,03,48,4.40
2013,10,23,03,49,4.40
2013,10,23,03,50,4.30
2013,10,23,03,51,4.40
2013,10,23,03,52,4.40
2013,10,23,03,53,4.40
2013,10,23,03,54,4.50
2013,10,23,03,55,4.60
2013,10,23,03,56,4.60
2013,10,23,03,57,4.60
2013,10,23,03,58,4.60
2013,10,23,03,59,4.60
2013,10,23,04,00,4.70
2013,10,23,04,01,4.60
2013,10,23,04,02,4.60
2013,10,23,04,03,4.70
2013,10,23,04,04,4.70
2013,10,23,04,05,4.60
2013,10,23,04,06,4.60
2013,10,23,04,07,4.60
2013,10,23,04,08,4.60
2013,10,23,04,09,4.60
2013,10,23,04,10,4.60
2013,10,23,04,11,4.60
2013,10,23,04,12,4.70
2013,10,23,04,13,4.70
2013,10,23,04,14,4.70
2013,10,23,04,15,4.70
2013,10,23,04,16,4.70
2013,10,23,04,17,4.60
2013,10,23,04,18,4.60
2013,10,23,04,19,4.50
2013,10,23,04,20,4.50
2013,10,23,04,21,4.40
2013,10,23,04,22,4.40
2013,10,23,04,23,4.40
2013,10,23,04,24,4.40
2013,10,23,04,25,4.40
2013,10,23,04,26,4.50
2013,10,23,04,27,4.50
2013,10,23,04,28,4.50
2013,10,23,04,29,4.60
2013,10,23,04,30,4.70
2013,10,23,04,31,4.70
2013,10,23,04,32,4.70
2013,10,23,04,33,4.60
2013,10,23,04,34,4.60
2013,10,23,04,35,4.60
2013,10,23,04,36,4.60
2013,10,23,04,37,4.60
2013,10,23,04,38,4.60
2013,10,23,04,39,4.60
2013,10,23,04,40,4.70
2013,10,23,04,41,4.70
2013,10,23,04,42,4.70
2013,10,23,04,43,4.70
2013,10,23,04,44,4.70
2013,10,23,04,45,4.70
2013,10,23,04,46,4.70
2013,10,23,04,47,4.70
2013,10,23,04,48,4.70
2013,10,23,04,49,4.80
2013,10,23,04,50,4.80
2013,10,23,04,51,4.80
2013,10,23,04,52,4.80
2013,10,23,04,53,4.80
2013,10,23,04,54,4.90
2013,10,23,04,55,4.90
2013,10,23,04,56,5.00
2013,10,23,04,57,5.10
2013,10,23,04,58,5.10
2013,10,23,04,59,5.00
2013,10,23,05,00,5.00
2013,10,23,05,01,4.90
2013,10,23,05,02,4.80
2013,10,23,05,03,4.70
2013,10,23,05,04,4.60
2013,10,23,05,05,4.50
2013,10,23,05,06,4.40
2013,10,23,05,07,4.30
2013,10,23,05,08,4.30
2013,10,23,05,09,4.20
2013,10,23,05,10,4.20
2013,10,23,05,11,4.20
2013,10,23,05,12,4.10
2013,10,23,05,13,4.10
2013,10,23,05,14,4.10
2013,10,23,05,15,4.10
2013,10,23,05,16,4.10
2013,10,23,05,17,4.10
2013,10,23,05,18,4.10
2013,10,23,05,19,4.10
2013,10,23,05,20,4.10
2013,10,23,05,21,4.10
2013,10,23,05,22,4.10
2013,10,23,05,23,4.10
2013,10,23,05,24,4.10
2013,10,23,05,25,4.10
2013,10,23,05,26,4.10
2013,10,23,05,27,4.10
2013,10,23,05,28,4.10
2013,10,23,05,29,4.10
2013,10,23,05,30,4.10
2013,10,23,05,31,4.10
2013,10,23,05,32,4.10
2013,10,23,05,33,4.10
2013,10,23,05,34,4.10
2013,10,23,05,35,4.10
2013,10,23,05,36,4.10
2013,10,23,05,37,4.20
2013,10,23,05,38,4.20
2013,10,23,05,39,4.20
2013,10,23,05,40,4.20
2013,10,23,05,41,4.30
2013,10,23,05,42,4.30
2013,10,23,05,43,4.30
2013,10,23,05,44,4.20
2013,10,23,05,45,4.20
2013,10,23,05,46,4.20
2013,10,23,05,47,4.20
2013,10,23,05,48,4.20
2013,10,23,05,49,4.20
2013,10,23,05,50,4.20
2013,10,23,05,51,4.20
2013,10,23,05,52,4.20
2013,10,23,05,53,4.10
2013,10,23,05,54,4.10
2013,10,23,05,55,4.10
2013,10,23,05,56,4.00
2013,10,23,05,57,4.00
2013,10,23,05,58,4.00
2013,10,23,05,59,4.00
2013,10,23,06,00,4.00
2013,10,23,06,01,3.90
2013,10,23,06,02,3.90
2013,10,23,06,03,3.90
2013,10,23,06,04,3.90
2013,10,23,06,05,3.90
2013,10,23,06,06,3.90
2013,10,23,06,07,3.90
2013,10,23,06,08,3.90
2013,10,23,06,09,3.90
2013,10,23,06,10,3.90
2013,10,23,06,11,3.90
2013,10,23,06,12,3.80
2013,10,23,06,13,3.80
2013,10,23,06,14,3.80
2013,10,23,06,15,3.70
2013,10,23,06,16,3.70
2013,10,23,06,17,3.70
2013,10,23,06,18,3.60
2013,10,23,06,19,3.60
2013,10,23,06,20,3.60
2013,10,23,06,21,3.60
2013,10,23,06,22,3.60
2013,10,23,06,23,3.60
2013,10,23,06,24,3.60
2013,10,23,06,25,3.60
2013,10,23,06,26,3.50
2013,10,23,06,27,3.50
2013,10,23,06,28,3.40
2013,10,23,06,29,3.40
2013,10,23,06,30,3.30
2013,10,23,06,31,3.30
2013,10,23,06,32,3.30
2013,10,23,06,33,3.30
2013,10,23,06,34,3.30
2013,10,23,06,35,3.20
2013,10,23,06,36,3.20
2013,10,23,06,37,3.20
2013,10,23,06,38,3.20
2013,10,23,06,39,3.20
2013,10,23,06,40,3.20
2013,10,23,06,41,3.20
2013,10,23,06,42,3.30
2013,10,23,06,43,3.30
2013,10,23,06,44,3.30
2013,10,23,06,45,3.30
2013,10,23,06,46,3.30
2013,10,23,06,47,3.30
2013,10,23,06,48,3.30
2013,10,23,06,49,3.30
2013,10,23,06,50,3.30
2013,10,23,06,51,3.30
2013,10,23,06,52,3.20
2013,10,23,06,53,3.20
2013,10,23,06,54,3.20
2013,10,23,06,55,3.20
2013,10,23,06,56,3.20
2013,10,23,06,57,3.20
2013,10,23,06,58,3.30
2013,10,23,06,59,3.30
2013,10,23,07,00,3.30
2013,10,23,07,01,3.30
2013,10,23,07,02,3.30
2013,10,23,07,03,3.30
2013,10,23,07,04,3.30
2013,10,23,07,05,3.30
2013,10,23,07,06,3.30
2013,10,23,07,07,3.30
2013,10,23,07,08,3.30
2013,10,23,07,09,3.30
2013,10,23,07,10,3.40
2013,10,23,07,11,3.40
2013,10,23,07,12,3.40
2013,10,23,07,13,3.40
2013,10,23,07,14,3.30
2013,10,23,07,15,3.30
2013,10,23,07,16,3.30
2013,10,23,07,17,3.30
2013,10,23,07,18,3.30
2013,10,23,07,19,3.30
2013,10,23,07,20,3.20
2013,10,23,07,21,3.20
2013,10,23,07,22,3.10
2013,10,23,07,23,3.10
2013,10,23,07,24,3.00
2013,10,23,07,25,3.00
2013,10,23,07,26,3.10
2013,10,23,07,27,3.10
2013,10,23,07,28,3.20
2013,10,23,07,29,3.30
2013,10,23,07,30,3.30
2013,10,23,07,31,3.30
2013,10,23,07,32,3.30
2013,10,23,07,33,3.20
2013,10,23,07,34,3.20
2013,10,23,07,35,3.20
2013,10,23,07,36,3.10
2013,10,23,07,37,3.10
2013,10,23,07,38,3.10
2013,10,23,07,39,3.10
2013,10,23,07,40,3.10
2013,10,23,07,41,3.10
2013,10,23,07,42,3.10
2013,10,23,07,43,3.10
2013,10,23,07,44,3.00
2013,10,23,07,45,3.00
2013,10,23,07,46,3.00
2013,10,23,07,47,3.00
2013,10,23,07,48,3.00
2013,10,23,07,49,3.00
2013,10,23,07,50,3.00
2013,10,23,07,51,3.00
2013,10,23,07,52,3.00
2013,10,23,07,53,3.10
2013,10,23,07,54,3.10
2013,10,23,07,55,3.20
2013,10,23,07,56,3.30
2013,10,23,07,57,3.30
2013,10,23,07,58,3.30
2013,10,23,07,59,3.30
2013,10,23,08,00,3.30
2013,10,23,08,01,3.30
2013,10,23,08,02,3.30
2013,10,23,08,03,3.30
2013,10,23,08,04,3.30
2013,10,23,08,05,3.30
2013,10,23,08,06,3.30
2013,10,23,08,07,3.30
2013,10,23,08,08,3.40
2013,10,23,08,09,3.50
2013,10,23,08,10,3.50
2013,10,23,08,11,3.60
2013,10,23,08,12,3.60
2013,10,23,08,13,3.50
2013,10,23,08,14,3.50
2013,10,23,08,15,3.40
2013,10,23,08,16,3.40
2013,10,23,08,17,3.30
2013,10,23,08,18,3.30
2013,10,23,08,19,3.30
2013,10,23,08,20,3.20
2013,10,23,08,21,3.20
2013,10,23,08,22,3.20
2013,10,23,08,23,3.20
2013,10,23,08,24,3.20
2013,10,23,08,25,3.10
2013,10,23,08,26,3.10
2013,10,23,08,27,3.10
2013,10,23,08,28,3.00
2013,10,23,08,29,3.00
2013,10,23,08,30,3.00
2013,10,23,08,31,3.00
2013,10,23,08,32,3.10
2013,10,23,08,33,3.10
2013,10,23,08,34,3.10
2013,10,23,08,35,3.10
2013,10,23,08,36,3.10
2013,10,23,08,37,3.10
2013,10,23,08,38,3.10
2013,10,23,08,39,3.20
2013,10,23,08,40,3.20
2013,10,23,08,41,3.20
2013,10,23,08,42,3.20
2013,10,23,08,43,3.20
2013,10,23,08,44,3.20
2013,10,23,08,45,3.20
2013,10,23,08,46,3.20
2013,10,23,08,47,3.20
2013,10,23,08,48,3.20
2013,10,23,08,49,3.20
2013,10,23,08,50,3.20
2013,10,23,08,51,3.20
2013,10,23,08,52,3.20
2013,10,23,08,53,3.20
2013,10,23,08,54,3.20
2013,10,23,08,55,3.20
2013,10,23,08,56,3.20
2013,10,23,08,57,3.20
2013,10,23,08,58,3.20
2013,10,23,08,59,3.20
2013,10,23,09,00,3.10
2013,10,23,09,01,3.10
2013,10,23,09,02,3.10
2013,10,23,09,03,3.00
2013,10,23,09,04,3.00
2013,10,23,09,05,3.10
2013,10,23,09,06,3.00
2013,10,23,09,07,3.00
2013,10,23,09,08,3.00
2013,10,23,09,09,3.00
2013,10,23,09,10,3.00
2013,10,23,09,11,3.00
2013,10,23,09,12,3.00
2013,10,23,09,13,3.00
2013,10,23,09,14,3.10
2013,10,23,09,15,3.10
2013,10,23,09,16,3.10
2013,10,23,09,17,3.10
2013,10,23,09,18,3.10
2013,10,23,09,19,3.00
2013,10,23,09,20,3.00
2013,10,23,09,21,3.00
2013,10,23,09,22,3.00
2013,10,23,09,23,3.10
2013,10,23,09,24,3.10
2013,10,23,09,25,3.10
2013,10,23,09,26,3.10
2013,10,23,09,27,3.10
2013,10,23,09,28,3.10
2013,10,23,09,29,3.10
2013,10,23,09,30,3.10
2013,10,23,09,31,3.10
2013,10,23,09,32,3.10
2013,10,23,09,33,3.00
2013,10,23,09,34,3.00
2013,10,23,09,35,3.00
2013,10,23,09,36,3.00
2013,10,23,09,37,3.00
2013,10,23,09,38,2.90
2013,10,23,09,39,3.00
2013,10,23,09,40,3.00
2013,10,23,09,41,3.00
2013,10,23,09,42,3.10
2013,10,23,09,43,3.10
2013,10,23,09,44,3.20
2013,10,23,09,45,3.20
2013,10,23,09,46,3.30
2013,10,23,09,47,3.30
2013,10,23,09,48,3.30
2013,10,23,09,49,3.30
2013,10,23,09,50,3.30
2013,10,23,09,51,3.40
2013,10,23,09,52,3.40
2013,10,23,09,53,3.40
2013,10,23,09,54,3.40
2013,10,23,09,55,3.50
2013,10,23,09,56,3.50
2013,10,23,09,57,3.50
2013,10,23,09,58,3.50
2013,10,23,09,59,3.50
2013,10,23,10,00,3.50
2013,10,23,10,01,3.50
2013,10,23,10,02,3.50
2013,10,23,10,03,3.50
2013,10,23,10,04,3.50
2013,10,23,10,05,3.50
2013,10,23,10,06,3.60
2013,10,23,10,07,3.60
2013,10,23,10,08,3.70
2013,10,23,10,09,3.70
2013,10,23,10,10,3.70
2013,10,23,10,11,3.70
2013,10,23,10,12,3.70
2013,10,23,10,13,3.70
2013,10,23,10,14,3.70
2013,10,23,10,15,3.70
2013,10,23,10,16,3.70
2013,10,23,10,17,3.70
2013,10,23,10,18,3.70
2013,10,23,10,19,3.80
2013,10,23,10,20,3.80
2013,10,23,10,21,3.80
2013,10,23,10,22,3.70
2013,10,23,10,23,3.70
2013,10,23,10,24,3.70
2013,10,23,10,25,3.70
2013,10,23,10,26,3.70
2013,10,23,10,27,3.70
2013,10,23,10,28,3.70
2013,10,23,10,29,3.70
2013,10,23,10,30,3.70
2013,10,23,10,31,3.70
2013,10,23,10,32,3.80
2013,10,23,10,33,3.80
2013,10,23,10,34,3.80
2013,10,23,10,35,3.90
2013,10,23,10,36,4.00
2013,10,23,10,37,4.10
2013,10,23,10,38,4.20
2013,10,23,10,39,4.20
2013,10,23,10,40,4.20
2013,10,23,10,41,4.20
2013,10,23,10,42,4.20
2013,10,23,10,43,4.20
2013,10,23,10,44,4.30
2013,10,23,10,45,4.30
2013,10,23,10,46,4.40
2013,10,23,10,47,4.40
2013,10,23,10,48,4.50
2013,10,23,10,49,4.60
2013,10,23,10,50,4.70
2013,10,23,10,51,4.80
2013,10,23,10,52,4.90
2013,10,23,10,53,5.00
2013,10,23,10,54,5.10
2013,10,23,10,55,5.20
2013,10,23,10,56,5.30
2013,10,23,10,57,5.50
2013,10,23,10,58,5.60
2013,10,23,10,59,5.70
2013,10,23,11,00,5.80
2013,10,23,11,01,5.90
2013,10,23,11,02,6.00
2013,10,23,11,03,6.10
2013,10,23,11,04,6.20
2013,10,23,11,05,6.20
2013,10,23,11,06,6.30
2013,10,23,11,07,6.40
2013,10,23,11,08,6.40
2013,10,23,11,09,6.50
2013,10,23,11,10,6.50
2013,10,23,11,11,6.50
2013,10,23,11,12,6.60
2013,10,23,11,13,6.60
2013,10,23,11,14,6.60
2013,10,23,11,15,6.60
2013,10,23,11,16,6.70
2013,10,23,11,17,6.70
2013,10,23,11,18,6.70
2013,10,23,11,19,6.80
2013,10,23,11,20,6.80
2013,10,23,11,21,6.90
2013,10,23,11,22,7.00
2013,10,23,11,23,7.10
2013,10,23,11,24,7.20
2013,10,23,11,25,7.30
2013,10,23,11,26,7.50
2013,10,23,11,27,7.60
2013,10,23,11,28,7.70
2013,10,23,11,29,7.80
2013,10,23,11,30,7.90
2013,10,23,11,31,8.00
2013,10,23,11,32,8.20
2013,10,23,11,33,8.30
2013,10,23,11,34,8.40
2013,10,23,11,35,8.60
2013,10,23,11,36,8.70
2013,10,23,11,37,8.90
2013,10,23,11,38,9.00
2013,10,23,11,39,9.10
2013,10,23,11,40,9.10
2013,10,23,11,41,9.20
2013,10,23,11,42,9.20
2013,10,23,11,43,9.20
2013,10,23,11,44,9.30
2013,10,23,11,45,9.30
2013,10,23,11,46,9.30
2013,10,23,11,47,9.40
2013,10,23,11,48,9.40
2013,10,23,11,49,9.40
2013,10,23,11,50,9.40
2013,10,23,11,51,9.40
2013,10,23,11,52,9.50
2013,10,23,11,53,9.60
2013,10,23,11,54,9.60
2013,10,23,11,55,9.70
2013,10,23,11,56,9.80
2013,10,23,11,57,9.80
2013,10,23,11,58,9.90
2013,10,23,11,59,9.90
2013,10,23,12,00,10.00
2013,10,23,12,01,10.00
2013,10,23,12,02,10.10
2013,10,23,12,03,10.10
2013,10,23,12,04,10.20
2013,10,23,12,05,10.20
2013,10,23,12,06,10.20
2013,10,23,12,07,10.20
2013,10,23,12,08,10.20
2013,10,23,12,09,10.30
2013,10,23,12,10,10.30
2013,10,23,12,11,10.40
2013,10,23,12,12,10.40
2013,10,23,12,13,10.50
2013,10,23,12,14,10.60
2013,10,23,12,15,10.70
2013,10,23,12,16,10.80
2013,10,23,12,17,10.90
2013,10,23,12,18,11.00
2013,10,23,12,19,11.00
2013,10,23,12,20,11.10
2013,10,23,12,21,11.20
2013,10,23,12,22,11.30
2013,10,23,12,23,11.40
2013,10,23,12,24,11.50
2013,10,23,12,25,11.60
2013,10,23,12,26,11.80
2013,10,23,12,27,11.90
2013,10,23,12,28,12.00
2013,10,23,12,29,12.20
2013,10,23,12,30,12.30
2013,10,23,12,31,12.40
2013,10,23,12,32,12.50
2013,10,23,12,33,12.60
2013,10,23,12,34,12.60
2013,10,23,12,35,12.60
2013,10,23,12,36,12.60
2013,10,23,12,37,12.60
2013,10,23,12,38,12.60
2013,10,23,12,39,12.60
2013,10,23,12,40,12.60
2013,10,23,12,41,12.60
2013,10,23,12,42,12.60
2013,10,23,12,43,12.60
2013,10,23,12,44,12.60
2013,10,23,12,45,12.60
2013,10,23,12,46,12.70
2013,10,23,12,47,12.70
2013,10,23,12,48,12.80
2013,10,23,12,49,12.80
2013,10,23,12,50,12.80
2013,10,23,12,51,12.90
2013,10,23,12,52,12.90
2013,10,23,12,53,12.90
2013,10,23,12,54,12.90
2013,10,23,12,55,13.00
2013,10,23,12,56,13.00
2013,10,23,12,57,13.00
2013,10,23,12,58,13.10
2013,10,23,12,59,13.10
2013,10,23,13,00,13.10
2013,10,23,13,01,13.20
2013,10,23,13,02,13.20
2013,10,23,13,03,13.20
2013,10,23,13,04,13.20
2013,10,23,13,05,13.30
2013,10,23,13,06,13.30
2013,10,23,13,07,13.30
2013,10,23,13,08,13.40
2013,10,23,13,09,13.40
2013,10,23,13,10,13.50
2013,10,23,13,11,13.50
2013,10,23,13,12,13.60
2013,10,23,13,13,13.60
2013,10,23,13,14,13.70
2013,10,23,13,15,13.70
2013,10,23,13,16,13.70
2013,10,23,13,17,13.80
2013,10,23,13,18,13.80
2013,10,23,13,19,13.90
2013,10,23,13,20,13.90
2013,10,23,13,21,14.00
2013,10,23,13,22,14.00
2013,10,23,13,23,14.10
2013,10,23,13,24,14.10
2013,10,23,13,25,14.20
2013,10,23,13,26,14.30
2013,10,23,13,27,14.30
2013,10,23,13,28,14.40
2013,10,23,13,29,14.40
2013,10,23,13,30,14.50
2013,10,23,13,31,14.60
2013,10,23,13,32,14.60
2013,10,23,13,33,14.70
2013,10,23,13,34,14.70
2013,10,23,13,35,14.80
2013,10,23,13,36,14.90
2013,10,23,13,37,15.00
2013,10,23,13,38,15.00
2013,10,23,13,39,15.10
2013,10,23,13,40,15.10
2013,10,23,13,41,15.20
2013,10,23,13,42,15.20
2013,10,23,13,43,15.20
2013,10,23,13,44,15.20
2013,10,23,13,45,15.20
2013,10,23,13,46,15.20
2013,10,23,13,47,15.10
2013,10,23,13,48,15.20
2013,10,23,13,49,15.10
2013,10,23,13,50,15.10
2013,10,23,13,51,15.10
2013,10,23,13,52,15.10
2013,10,23,13,53,15.00
2013,10,23,13,54,15.00
2013,10,23,13,55,15.00
2013,10,23,13,56,15.00
2013,10,23,13,57,15.10
2013,10,23,13,58,15.10
2013,10,23,13,59,15.10
2013,10,23,14,00,15.10
2013,10,23,14,01,15.10
2013,10,23,14,02,15.10
2013,10,23,14,03,15.10
2013,10,23,14,04,15.10
2013,10,23,14,05,15.20
2013,10,23,14,06,15.20
2013,10,23,14,07,15.20
2013,10,23,14,08,15.20
2013,10,23,14,09,15.20
2013,10,23,14,10,15.30
2013,10,23,14,11,15.30
2013,10,23,14,12,15.30
2013,10,23,14,13,15.30
2013,10,23,14,14,15.30
2013,10,23,14,15,15.30
2013,10,23,14,16,15.40
2013,10,23,14,17,15.40
2013,10,23,14,18,15.40
2013,10,23,14,19,15.50
2013,10,23,14,20,15.50
2013,10,23,14,21,15.60
2013,10,23,14,22,15.60
2013,10,23,14,23,15.70
2013,10,23,14,24,15.70
2013,10,23,14,25,15.80
2013,10,23,14,26,15.80
2013,10,23,14,27,15.90
2013,10,23,14,28,15.90
2013,10,23,14,29,16.00
2013,10,23,14,30,16.00
2013,10,23,14,31,16.10
2013,10,23,14,32,16.20
2013,10,23,14,33,16.30
2013,10,23,14,34,16.30
2013,10,23,14,35,16.40
2013,10,23,14,36,16.50
2013,10,23,14,37,16.50
2013,10,23,14,38,16.60
2013,10,23,14,39,16.70
2013,10,23,14,40,16.70
2013,10,23,14,41,16.80
2013,10,23,14,42,16.80
2013,10,23,14,43,16.90
2013,10,23,14,44,16.90
2013,10,23,14,45,17.00
2013,10,23,14,46,17.10
2013,10,23,14,47,17.20
2013,10,23,14,48,17.20
2013,10,23,14,49,17.30
2013,10,23,14,50,17.30
2013,10,23,14,51,17.30
2013,10,23,14,52,17.30
2013,10,23,14,53,17.30
2013,10,23,14,54,17.30
2013,10,23,14,55,17.20
2013,10,23,14,56,17.20
2013,10,23,14,57,17.10
2013,10,23,14,58,17.00
2013,10,23,14,59,16.80
2013,10,23,15,00,16.70
2013,10,23,15,01,16.60
2013,10,23,15,02,16.50
2013,10,23,15,03,16.40
2013,10,23,15,04,16.40
2013,10,23,15,05,16.30
2013,10,23,15,06,16.30
2013,10,23,15,07,16.30
2013,10,23,15,08,16.20
2013,10,23,15,09,16.20
2013,10,23,15,10,16.20
2013,10,23,15,11,16.20
2013,10,23,15,12,16.20
2013,10,23,15,13,16.20
2013,10,23,15,14,16.20
2013,10,23,15,15,16.20
2013,10,23,15,16,16.20
2013,10,23,15,17,16.20
2013,10,23,15,18,16.20
2013,10,23,15,19,16.20
2013,10,23,15,20,16.20
2013,10,23,15,21,16.20
2013,10,23,15,22,16.20
2013,10,23,15,23,16.20
2013,10,23,15,24,16.20
2013,10,23,15,25,16.20
2013,10,23,15,26,16.20
2013,10,23,15,27,16.20
2013,10,23,15,28,16.20
2013,10,23,15,29,16.20
2013,10,23,15,30,16.20
2013,10,23,15,31,16.20
2013,10,23,15,32,16.10
2013,10,23,15,33,16.00
2013,10,23,15,34,16.00
2013,10,23,15,35,15.90
2013,10,23,15,36,15.90
2013,10,23,15,37,15.90
2013,10,23,15,38,15.90
2013,10,23,15,39,15.90
2013,10,23,15,40,15.90
2013,10,23,15,41,15.90
2013,10,23,15,42,15.90
2013,10,23,15,43,15.90
2013,10,23,15,44,15.90
2013,10,23,15,45,15.90
2013,10,23,15,46,15.90
2013,10,23,15,47,15.90
2013,10,23,15,48,15.90
2013,10,23,15,49,15.90
2013,10,23,15,50,15.90
2013,10,23,15,51,15.90
2013,10,23,15,52,16.00
2013,10,23,15,53,16.00
2013,10,23,15,54,16.00
2013,10,23,15,55,16.10
2013,10,23,15,56,16.10
2013,10,23,15,57,16.10
2013,10,23,15,58,16.10
2013,10,23,15,59,16.00
2013,10,23,16,00,16.00
2013,10,23,16,01,16.00
2013,10,23,16,02,16.00
2013,10,23,16,03,16.00
2013,10,23,16,04,16.00
2013,10,23,16,05,16.00
2013,10,23,16,06,16.00
2013,10,23,16,07,16.00
2013,10,23,16,08,16.00
2013,10,23,16,09,16.00
2013,10,23,16,10,15.90
2013,10,23,16,11,16.00
2013,10,23,16,12,16.00
2013,10,23,16,13,16.00
2013,10,23,16,14,16.00
2013,10,23,16,15,16.00
2013,10,23,16,16,16.00
2013,10,23,16,17,15.90
2013,10,23,16,18,15.90
2013,10,23,16,19,15.90
2013,10,23,16,20,15.90
2013,10,23,16,21,15.90
2013,10,23,16,22,15.80
2013,10,23,16,23,15.80
2013,10,23,16,24,15.70
2013,10,23,16,25,15.70
2013,10,23,16,26,15.70
2013,10,23,16,27,15.60
2013,10,23,16,28,15.60
2013,10,23,16,29,15.60
2013,10,23,16,30,15.60
2013,10,23,16,31,15.60
2013,10,23,16,32,15.60
2013,10,23,16,33,15.60
2013,10,23,16,34,15.60
2013,10,23,16,35,15.60
2013,10,23,16,36,15.60
2013,10,23,16,37,15.60
2013,10,23,16,38,15.60
2013,10,23,16,39,15.60
2013,10,23,16,40,15.60
2013,10,23,16,41,15.60
2013,10,23,16,42,15.60
2013,10,23,16,43,15.60
2013,10,23,16,44,15.60
2013,10,23,16,45,15.60
2013,10,23,16,46,15.60
2013,10,23,16,47,15.60
2013,10,23,16,48,15.60
2013,10,23,16,49,15.60
2013,10,23,16,50,15.50
2013,10,23,16,51,15.50
2013,10,23,16,52,15.40
2013,10,23,16,53,15.40
2013,10,23,16,54,15.40
2013,10,23,16,55,15.30
2013,10,23,16,56,15.30
2013,10,23,16,57,15.20
2013,10,23,16,58,15.10
2013,10,23,16,59,15.10
2013,10,23,17,00,15.00
2013,10,23,17,01,15.00
2013,10,23,17,02,14.90
2013,10,23,17,03,14.90
2013,10,23,17,04,14.80
2013,10,23,17,05,14.80
2013,10,23,17,06,14.80
2013,10,23,17,07,14.80
2013,10,23,17,08,14.70
2013,10,23,17,09,14.70
2013,10,23,17,10,14.60
2013,10,23,17,11,14.60
2013,10,23,17,12,14.60
2013,10,23,17,13,14.50
2013,10,23,17,14,14.40
2013,10,23,17,15,14.30
2013,10,23,17,16,14.30
2013,10,23,17,17,14.20
2013,10,23,17,18,14.10
2013,10,23,17,19,14.00
2013,10,23,17,20,13.90
2013,10,23,17,21,13.90
2013,10,23,17,22,13.80
2013,10,23,17,23,13.70
2013,10,23,17,24,13.60
2013,10,23,17,25,13.50
2013,10,23,17,26,13.50
2013,10,23,17,27,13.40
2013,10,23,17,28,13.30
2013,10,23,17,29,13.30
2013,10,23,17,30,13.20
2013,10,23,17,31,13.20
2013,10,23,17,32,13.10
2013,10,23,17,33,13.00
2013,10,23,17,34,13.00
2013,10,23,17,35,12.90
2013,10,23,17,36,12.90
2013,10,23,17,37,12.80
2013,10,23,17,38,12.70
2013,10,23,17,39,12.70
2013,10,23,17,40,12.60
2013,10,23,17,41,12.50
2013,10,23,17,42,12.50
2013,10,23,17,43,12.40
2013,10,23,17,44,12.30
2013,10,23,17,45,12.20
2013,10,23,17,46,12.20
2013,10,23,17,47,12.10
2013,10,23,17,48,12.10
2013,10,23,17,49,12.00
2013,10,23,17,50,12.00